Madison, MN

4:12 PM CDT on September 16, 2019 (GMT -0500)
Madison-Lac Qui Parle County

Weather History for KDXX - July, 2019

Change the Weather History Date:

Sunday, July 14, 2019

  Actual Average (KAQP) Record (KAQP)
Temperature  
Mean Temperature 81 °F -  
Max Temperature 91 °F 80 °F 93 °F (1998)
Min Temperature 71 °F 60 °F 35 °F (2010)
Cooling Degree Days 16    
Growing Degree Days 31 (Base 50)    
Moisture  
Dew Point 73 °F    
Average Humidity 79    
Maximum Humidity 100    
Minimum Humidity 52    
Precipitation  
Precipitation 0.05 in - - ()
Sea Level Pressure  
Sea Level Pressure 29.96 in    
Wind  
Wind Speed 5 mph (SSE)    
Max Wind Speed 15 mph    
Max Gust Speed 21 mph    
Visibility 9 miles    
Events Rain , Thunderstorm    
Averages and records for this station are not official NWS values.
T = Trace of Precipitation, MM = Missing Value Source: NWS Daily Summary

Daily Weather History Graph

Daily Weather History Graph

Search for Another Location

Airport or City:

Astronomy

Jul. 14, 2019 Rise Set
Actual Time 5:51 AM CDT 9:09 PM CDT
Civil Twilight 5:15 AM CDT 9:45 PM CDT
Nautical Twilight 4:28 AM CDT 10:32 PM CDT
Astronomical Twilight 3:29 AM CDT 11:30 PM CDT
Moon 7:33 PM CDT (7/14) 3:54 AM CDT (7/14)
Length of Visible Light 16h 30m
Length of Day
15h 18m
Waxing Gibbous, 95% of the Moon is Illuminated
Jul 14
Waxing Gibbous
Jul 16
Full
Jul 24
Last Quarter
Jul 31
New
Aug 7
First Quarter

Hourly Weather History & Observations

Time (CDT) Temp. Heat Index Dew Point Humidity Pressure Visibility Wind Dir Wind Speed Gust Speed Precip Events Conditions
12:15 AM 73.4 °F - 71.6 °F 94% 30.01 in 10.0 mi South 3.5 mph - N/A   Clear
12:35 AM 73.4 °F - 71.6 °F 94% 30.02 in 10.0 mi Calm Calm - N/A   Clear
12:36 AM 73.4 °F - 71.6 °F 94% 30.01 in 10.0 mi Calm Calm - N/A   Clear
12:55 AM 73.4 °F - 71.6 °F 94% 30.01 in 10.0 mi Calm Calm - N/A   Clear
12:56 AM 73.4 °F - 71.6 °F 94% 30.01 in 10.0 mi Calm Calm - N/A   Clear
1:18 AM 71.6 °F - 71.6 °F 100% 30.00 in 10.0 mi SE 4.6 mph - N/A   Clear
1:37 AM 71.6 °F - 71.6 °F 100% 30.00 in 10.0 mi Calm Calm - N/A   Clear
1:56 AM 71.6 °F - 69.8 °F 94% 30.00 in 7.0 mi SSE 3.5 mph - N/A   Clear
2:15 AM 71.6 °F - 69.8 °F 94% 30.01 in 5.0 mi Calm Calm - N/A   Clear
2:35 AM 71.6 °F - 71.6 °F 100% 30.01 in 7.0 mi Calm Calm - N/A   Clear
2:39 AM 71.6 °F - 71.6 °F 100% 30.01 in 7.0 mi Calm Calm - N/A   Clear
2:57 AM 71.6 °F - 69.8 °F 94% 30.01 in 7.0 mi Calm Calm - N/A   Mostly Cloudy
3:16 AM 71.6 °F - 71.6 °F 100% 30.01 in 7.0 mi Calm Calm - N/A   Overcast
3:35 AM 71.6 °F - 71.6 °F 100% 30.01 in 5.0 mi ESE 3.5 mph - N/A   Scattered Clouds
3:36 AM 71.6 °F - 71.6 °F 100% 30.01 in 5.0 mi East 3.5 mph - N/A   Scattered Clouds
3:55 AM 71.6 °F - 69.8 °F 94% 30.01 in 5.0 mi ESE 3.5 mph - N/A   Clear
4:18 AM 71.6 °F - 69.8 °F 94% 30.00 in 4.0 mi ESE 4.6 mph - N/A   Clear
4:36 AM 71.6 °F - 69.8 °F 94% 30.00 in 5.0 mi East 4.6 mph - N/A   Clear
4:55 AM 71.6 °F - 69.8 °F 94% 30.00 in 5.0 mi SE 3.5 mph - N/A   Clear
5:15 AM 71.6 °F - 69.8 °F 94% 30.00 in 7.0 mi SE 3.5 mph - N/A   Clear
5:35 AM 71.6 °F - 69.8 °F 94% 30.01 in 10.0 mi SSE 4.6 mph - N/A   Clear
5:36 AM 71.6 °F - 69.8 °F 94% 30.01 in 10.0 mi SSE 4.6 mph - N/A   Clear
5:57 AM 71.6 °F - 69.8 °F 94% 30.01 in 10.0 mi SE 4.6 mph - N/A   Scattered Clouds
6:35 AM 71.6 °F - 69.8 °F 94% 30.01 in 10.0 mi SE 4.6 mph - N/A   Clear
6:55 AM 71.6 °F - 69.8 °F 94% 30.01 in 10.0 mi SE 4.6 mph - N/A   Clear
6:56 AM 71.6 °F - 69.8 °F 94% 30.01 in 10.0 mi SE 4.6 mph - N/A   Clear
7:16 AM 73.4 °F - 71.6 °F 94% 30.00 in 10.0 mi SSE 6.9 mph - N/A   Clear
7:36 AM 73.4 °F - 71.6 °F 94% 30.00 in 10.0 mi SSE 5.8 mph - N/A   Clear
7:55 AM 75.2 °F - 73.4 °F 94% 29.99 in 10.0 mi SSE 6.9 mph - N/A   Scattered Clouds
7:56 AM 75.2 °F - 73.4 °F 94% 29.99 in 10.0 mi SSE 5.8 mph - N/A   Scattered Clouds
8:15 AM 78.8 °F - 73.4 °F 83% 29.99 in 10.0 mi South 9.2 mph - N/A   Clear
8:37 AM 78.8 °F - 73.4 °F 83% 29.97 in 10.0 mi South 9.2 mph - N/A   Clear
8:56 AM 80.6 °F 85.4 °F 73.4 °F 79% 29.97 in 10.0 mi South 10.4 mph - N/A   Clear
9:15 AM 82.4 °F 88.2 °F 73.4 °F 74% 29.98 in 10.0 mi South 13.8 mph - N/A   Clear
9:16 AM 82.4 °F 88.2 °F 73.4 °F 74% 29.98 in 10.0 mi South 12.7 mph - N/A   Clear
9:35 AM 82.4 °F 88.2 °F 73.4 °F 74% 29.98 in 10.0 mi South 13.8 mph - N/A   Scattered Clouds
9:36 AM 82.4 °F 88.2 °F 73.4 °F 74% 29.98 in 10.0 mi South 11.5 mph - N/A   Scattered Clouds
9:59 AM 84.2 °F 90.9 °F 73.4 °F 70% 29.98 in 10.0 mi SSW 11.5 mph - N/A   Scattered Clouds
10:16 AM 84.2 °F 90.9 °F 73.4 °F 70% 29.98 in 10.0 mi SSW 10.4 mph - N/A   Scattered Clouds
10:36 AM 86.0 °F 93.4 °F 73.4 °F 66% 29.98 in 10.0 mi South 10.4 mph - N/A   Scattered Clouds
10:55 AM 86.0 °F 93.4 °F 73.4 °F 66% 29.98 in 10.0 mi South 6.9 mph - N/A   Scattered Clouds
10:56 AM 86.0 °F 93.4 °F 73.4 °F 66% 29.98 in 10.0 mi South 8.1 mph - N/A   Scattered Clouds
11:18 AM 87.8 °F 97.6 °F 75.2 °F 66% 29.97 in 10.0 mi South 6.9 mph - N/A   Scattered Clouds
11:35 AM 87.8 °F 97.6 °F 75.2 °F 66% 29.97 in 10.0 mi SSW 9.2 mph - N/A   Clear
11:55 AM 89.6 °F 99.8 °F 75.2 °F 62% 29.96 in 10.0 mi South 12.7 mph - N/A   Clear
11:56 AM 89.6 °F 99.8 °F 75.2 °F 62% 29.97 in 10.0 mi South 11.5 mph - N/A   Clear
12:15 PM 89.6 °F 98.2 °F 73.4 °F 59% 29.97 in 10.0 mi SSW 9.2 mph 17.3 mph N/A   Clear
12:19 PM 89.6 °F 99.8 °F 75.2 °F 62% 29.97 in 10.0 mi SSW 9.2 mph 17.3 mph N/A   Clear
12:37 PM 89.6 °F 98.2 °F 73.4 °F 59% 29.96 in 10.0 mi SSW 12.7 mph 18.4 mph N/A   Clear
12:56 PM 89.6 °F 99.8 °F 75.2 °F 62% 29.96 in 10.0 mi SSW 10.4 mph 16.1 mph N/A   Clear
1:15 PM 89.6 °F 98.2 °F 73.4 °F 59% 29.96 in 10.0 mi South 9.2 mph - N/A   Clear
1:16 PM 89.6 °F 99.8 °F 75.2 °F 62% 29.96 in 10.0 mi South 9.2 mph - N/A   Clear
1:35 PM 91.4 °F 102.5 °F 75.2 °F 59% 29.95 in 10.0 mi South 9.2 mph - N/A   Clear
1:36 PM 91.4 °F 102.5 °F 75.2 °F 59% 29.95 in 10.0 mi South 10.4 mph - N/A   Clear
1:59 PM 91.4 °F 98.4 °F 71.6 °F 52% 29.95 in 10.0 mi South 15.0 mph 20.7 mph N/A   Clear
2:16 PM 89.6 °F 96.2 °F 71.6 °F 55% 29.95 in 10.0 mi South 13.8 mph - N/A   Clear
2:36 PM 89.6 °F 96.2 °F 71.6 °F 55% 29.95 in 10.0 mi South 10.4 mph 16.1 mph N/A   Clear
2:55 PM 87.8 °F 95.6 °F 73.4 °F 62% 29.95 in 10.0 mi SSW 8.1 mph - N/A   Clear
3:15 PM 86.0 °F 93.4 °F 73.4 °F 66% 29.96 in 10.0 mi WSW 6.9 mph - N/A   Scattered Clouds
3:19 PM 86.0 °F 93.4 °F 73.4 °F 66% 29.96 in 10.0 mi WSW 5.8 mph - N/A   Scattered Clouds
3:38 PM 84.2 °F 92.3 °F 75.2 °F 74% 29.95 in 10.0 mi SW 6.9 mph - N/A Rain Rain
3:55 PM 82.4 °F 90.9 °F 77.0 °F 84% 29.95 in 10.0 mi South 4.6 mph - N/A Rain , Thunderstorm Light Thunderstorms and Rain
4:15 PM 82.4 °F 90.9 °F 77.0 °F 84% 29.96 in 10.0 mi SW 4.6 mph - N/A   Scattered Clouds
4:35 PM 80.6 °F 84.6 °F 71.6 °F 74% 29.97 in 10.0 mi North 6.9 mph 18.4 mph 0.05 in Rain Light Rain
4:39 PM 80.6 °F 84.6 °F 71.6 °F 74% 29.97 in 10.0 mi NNE 4.6 mph - 0.05 in Rain Light Rain
4:57 PM 80.6 °F 86.2 °F 75.2 °F 84% 29.96 in 10.0 mi Calm Calm - N/A Rain Light Rain
5:16 PM 82.4 °F 89.5 °F 75.2 °F 79% 29.94 in 10.0 mi East 5.8 mph - N/A   Clear
5:35 PM 84.2 °F 90.9 °F 73.4 °F 70% 29.93 in 10.0 mi East 9.2 mph - N/A   Clear
5:36 PM 84.2 °F 90.9 °F 73.4 °F 70% 2.99 in 10.0 mi East 8.1 mph - N/A   Clear
5:55 PM 82.4 °F 89.5 °F 75.2 °F 79% 29.91 in 10.0 mi SE 9.2 mph - N/A   Clear
5:56 PM 82.4 °F 89.5 °F 75.2 °F 79% 29.91 in 10.0 mi SE 10.4 mph - N/A   Clear
6:19 PM 82.4 °F 89.5 °F 75.2 °F 79% 29.91 in 10.0 mi SE 6.9 mph - N/A   Clear
6:36 PM 84.2 °F 92.3 °F 75.2 °F 74% 29.91 in 10.0 mi SE 8.1 mph - N/A   Clear
6:56 PM 84.2 °F 92.3 °F 75.2 °F 74% 29.90 in 10.0 mi SE 4.6 mph - N/A   Clear
7:15 PM 86.0 °F 96.9 °F 77.0 °F 74% 29.89 in 10.0 mi SSE 6.9 mph - N/A   Clear
7:16 PM 86.0 °F 95.1 °F 75.2 °F 70% 29.89 in 10.0 mi SSE 6.9 mph - N/A   Clear
7:35 PM 87.8 °F 97.6 °F 75.2 °F 66% 29.88 in 10.0 mi South 8.1 mph - N/A   Clear
7:42 PM 87.8 °F 97.6 °F 75.2 °F 66% 29.88 in 10.0 mi South 9.2 mph - N/A   Clear
7:56 PM 86.0 °F 95.1 °F 75.2 °F 70% 29.87 in 10.0 mi South 11.5 mph - N/A   Clear
8:16 PM 86.0 °F 95.1 °F 75.2 °F 70% 29.88 in 10.0 mi South 9.2 mph - N/A   Clear
8:35 PM 84.2 °F 92.3 °F 75.2 °F 74% 29.89 in 10.0 mi South 6.9 mph - N/A   Clear
8:55 PM 84.2 °F 92.3 °F 75.2 °F 74% 29.90 in 10.0 mi SSE 4.6 mph - N/A   Clear
9:16 PM 82.4 °F 89.5 °F 75.2 °F 79% 29.90 in 10.0 mi SSE 5.8 mph - N/A   Clear
9:35 PM 82.4 °F 89.5 °F 75.2 °F 79% 29.91 in 10.0 mi ESE 5.8 mph - N/A   Clear
9:36 PM 80.6 °F 86.2 °F 75.2 °F 84% 29.91 in 10.0 mi ESE 6.9 mph - N/A   Clear
9:55 PM 82.4 °F 89.5 °F 75.2 °F 79% 29.91 in 10.0 mi SE 6.9 mph - N/A   Clear
9:56 PM 82.4 °F 89.5 °F 75.2 °F 79% 29.91 in 10.0 mi SE 6.9 mph - N/A   Clear
10:15 PM 82.4 °F 89.5 °F 75.2 °F 79% 29.90 in 10.0 mi SSE 6.9 mph - N/A   Clear
10:20 PM 82.4 °F 89.5 °F 75.2 °F 79% 29.89 in 10.0 mi SSE 8.1 mph - N/A   Clear
10:37 PM 82.4 °F 89.5 °F 75.2 °F 79% 29.89 in 10.0 mi SSE 6.9 mph - N/A   Clear
10:55 PM 80.6 °F 86.2 °F 75.2 °F 84% 29.88 in 10.0 mi SSE 8.1 mph - N/A   Clear
11:15 PM 80.6 °F 86.2 °F 75.2 °F 84% 29.88 in 10.0 mi SSE 6.9 mph - N/A   Clear
11:16 PM 80.6 °F 86.2 °F 75.2 °F 84% 29.88 in 10.0 mi SSE 8.1 mph - N/A   Clear
11:35 PM 80.6 °F 86.2 °F 75.2 °F 84% 29.88 in 10.0 mi SSE 8.1 mph - N/A   Clear
11:36 PM 80.6 °F 86.2 °F 75.2 °F 84% 29.88 in 10.0 mi SSE 8.1 mph - N/A   Clear
11:58 PM 80.6 °F 85.4 °F 73.4 °F 79% 29.88 in 10.0 mi South 8.1 mph - N/A   Clear